When you browse on this site, cookies collect data to enhance your experience and personalize the content and advertising you see.
Visit our Privacy Policy to learn more. By continuing to use the site, you agree to this use of cookies and data.

Meteo orario Dzhonsboro

Oggi, 11 Luglio, Sabato

Tempo Temperatura Precipitazioni Vento Pressione Umidità
00:00 +26°C° 0 mm 2 m/s 752 mm Hg 75%
01:00 +25°C° 0 mm 1 m/s 752 mm Hg 77%
02:00 +25°C° 0 mm 1 m/s 752 mm Hg 79%
03:00 +24°C° 0 mm 1 m/s 752 mm Hg 81%
04:00 +24°C° 0 mm 1 m/s 752 mm Hg 81%
05:00 +25°C° 0 mm 1 m/s 753 mm Hg 82%
06:00 +25°C° 0 mm 1 m/s 753 mm Hg 83%
07:00 +26°C° 0 mm 1 m/s 753 mm Hg 77%
08:00 +28°C° 0 mm 1 m/s 753 mm Hg 71%
09:00 +30°C° 0 mm 1 m/s 753 mm Hg 65%
10:00 +31°C° 0 mm 2 m/s 753 mm Hg 62%
11:00 +32°C° 0 mm 2 m/s 753 mm Hg 58%
12:00 +35°C° 0 mm 2 m/s 753 mm Hg 55%
13:00 +35°C° 0 mm 3 m/s 752 mm Hg 56%
14:00 +36°C° 0 mm 3 m/s 751 mm Hg 57%
15:00 +36°C° 0 mm 3 m/s 751 mm Hg 59%
16:00 +36°C° 0.2 mm 3 m/s 750 mm Hg 63%
17:00 +35°C° 0.2 mm 2 m/s 750 mm Hg 67%
18:00 +34°C° 0.2 mm 2 m/s 750 mm Hg 72%
19:00 +32°C° 0 mm 2 m/s 750 mm Hg 75%
20:00 +31°C° 0 mm 2 m/s 750 mm Hg 78%
21:00 +29°C° 0 mm 3 m/s 750 mm Hg 81%
22:00 +29°C° 0 mm 3 m/s 750 mm Hg 83%
23:00 +28°C° 0 mm 3 m/s 749 mm Hg 84%

Domani, 12 Luglio, Domenica

Tempo Temperatura Precipitazioni Vento Pressione Umidità
00:00 +28°C° 0 mm 4 m/s 749 mm Hg 85%
01:00 +28°C° 0.5 mm 4 m/s 749 mm Hg 86%
02:00 +28°C° 0.5 mm 4 m/s 749 mm Hg 86%
03:00 +27°C° 0.5 mm 5 m/s 749 mm Hg 87%
04:00 +27°C° 1.6 mm 4 m/s 749 mm Hg 88%
05:00 +26°C° 1.6 mm 3 m/s 749 mm Hg 88%
06:00 +25°C° 1.6 mm 2 m/s 749 mm Hg 89%
07:00 +26°C° 0.1 mm 3 m/s 749 mm Hg 83%
08:00 +27°C° 0.1 mm 3 m/s 749 mm Hg 77%
09:00 +29°C° 0.1 mm 3 m/s 749 mm Hg 71%
10:00 +30°C° 0 mm 3 m/s 749 mm Hg 68%
11:00 +31°C° 0 mm 3 m/s 749 mm Hg 66%
12:00 +33°C° 0 mm 3 m/s 749 mm Hg 63%
13:00 +34°C° 0 mm 3 m/s 748 mm Hg 64%
14:00 +34°C° 0 mm 4 m/s 748 mm Hg 64%
15:00 +34°C° 0 mm 4 m/s 747 mm Hg 65%
16:00 +34°C° 0.1 mm 3 m/s 747 mm Hg 68%
17:00 +33°C° 0.1 mm 3 m/s 747 mm Hg 70%
18:00 +33°C° 0.1 mm 3 m/s 747 mm Hg 73%
19:00 +30°C° 0 mm 3 m/s 747 mm Hg 73%
20:00 +28°C° 0 mm 3 m/s 748 mm Hg 74%
21:00 +26°C° 0 mm 3 m/s 748 mm Hg 75%
22:00 +25°C° 0 mm 3 m/s 748 mm Hg 77%
23:00 +24°C° 0 mm 3 m/s 749 mm Hg 79%

Dopodomani, 13 Luglio, Lunedi

Tempo Temperatura Precipitazioni Vento Pressione Umidità
00:00 +24°C° 0 mm 3 m/s 749 mm Hg 81%
01:00 +22°C° 0 mm 3 m/s 749 mm Hg 84%
02:00 +22°C° 0 mm 3 m/s 749 mm Hg 87%
03:00 +23°C° 0 mm 2 m/s 749 mm Hg 91%
04:00 +23°C° 0 mm 2 m/s 750 mm Hg 92%
05:00 +23°C° 0 mm 2 m/s 750 mm Hg 93%
06:00 +23°C° 0 mm 2 m/s 750 mm Hg 95%
07:00 +24°C° 0 mm 3 m/s 751 mm Hg 89%
08:00 +26°C° 0 mm 3 m/s 751 mm Hg 84%
09:00 +28°C° 0 mm 3 m/s 751 mm Hg 79%
10:00 +29°C° 0 mm 3 m/s 751 mm Hg 73%
11:00 +30°C° 0 mm 3 m/s 751 mm Hg 67%
12:00 +31°C° 0 mm 3 m/s 751 mm Hg 61%
13:00 +31°C° 0 mm 3 m/s 751 mm Hg 59%
14:00 +32°C° 0 mm 2 m/s 750 mm Hg 56%
15:00 +32°C° 0 mm 2 m/s 750 mm Hg 53%
16:00 +32°C° 0 mm 2 m/s 750 mm Hg 57%
17:00 +31°C° 0 mm 2 m/s 750 mm Hg 61%
18:00 +30°C° 0 mm 2 m/s 750 mm Hg 64%
19:00 +29°C° 0 mm 2 m/s 750 mm Hg 68%
20:00 +27°C° 0 mm 2 m/s 751 mm Hg 72%
21:00 +25°C° 0 mm 2 m/s 751 mm Hg 75%
22:00 +25°C° 0 mm 2 m/s 751 mm Hg 78%
23:00 +24°C° 0 mm 2 m/s 751 mm Hg 80%

14 Luglio, Martedi

Tempo Temperatura Precipitazioni Vento Pressione Umidità
00:00 +23°C° 0 mm 2 m/s 752 mm Hg 83%
01:00 +23°C° 0 mm 2 m/s 751 mm Hg 85%
02:00 +23°C° 0 mm 2 m/s 751 mm Hg 88%
03:00 +21°C° 0 mm 2 m/s 751 mm Hg 91%
04:00 +21°C° 0 mm 2 m/s 751 mm Hg 91%
05:00 +23°C° 0 mm 2 m/s 752 mm Hg 92%
06:00 +23°C° 0 mm 2 m/s 752 mm Hg 92%
07:00 +25°C° 0 mm 2 m/s 752 mm Hg 87%
08:00 +26°C° 0 mm 2 m/s 752 mm Hg 81%
09:00 +28°C° 0 mm 2 m/s 752 mm Hg 76%
10:00 +29°C° 0 mm 2 m/s 752 mm Hg 70%
11:00 +31°C° 0 mm 2 m/s 752 mm Hg 64%
12:00 +32°C° 0 mm 2 m/s 752 mm Hg 58%
13:00 +34°C° 0 mm 2 m/s 751 mm Hg 58%
14:00 +34°C° 0 mm 3 m/s 751 mm Hg 58%
15:00 +35°C° 0 mm 3 m/s 750 mm Hg 58%
16:00 +34°C° 0 mm 3 m/s 750 mm Hg 63%
17:00 +33°C° 0 mm 3 m/s 750 mm Hg 67%
18:00 +33°C° 0 mm 3 m/s 750 mm Hg 72%
19:00 +31°C° 0 mm 3 m/s 750 mm Hg 74%
20:00 +29°C° 0 mm 3 m/s 750 mm Hg 76%
21:00 +28°C° 0 mm 3 m/s 751 mm Hg 79%
22:00 +27°C° 0.9 mm 3 m/s 751 mm Hg 82%
23:00 +27°C° 0.9 mm 2 m/s 751 mm Hg 85%

15 Luglio, Mercoledi

Tempo Temperatura Precipitazioni Vento Pressione Umidità
00:00 +26°C° 0.9 mm 2 m/s 750 mm Hg 88%
01:00 +26°C° 1.2 mm 2 m/s 751 mm Hg 89%
02:00 +26°C° 1.2 mm 2 m/s 751 mm Hg 91%
03:00 +26°C° 1.2 mm 2 m/s 751 mm Hg 92%
04:00 +26°C° 0 mm 2 m/s 751 mm Hg 93%
05:00 +26°C° 0 mm 2 m/s 751 mm Hg 94%
06:00 +26°C° 0 mm 3 m/s 751 mm Hg 95%
07:00 +28°C° 0 mm 3 m/s 751 mm Hg 90%
08:00 +30°C° 0 mm 4 m/s 752 mm Hg 85%
09:00 +32°C° 0 mm 4 m/s 752 mm Hg 81%
10:00 +33°C° 1 mm 4 m/s 752 mm Hg 77%
11:00 +34°C° 1 mm 5 m/s 751 mm Hg 73%
12:00 +35°C° 1 mm 5 m/s 751 mm Hg 69%
13:00 +36°C° 0.1 mm 5 m/s 751 mm Hg 68%
14:00 +36°C° 0.1 mm 5 m/s 750 mm Hg 66%
15:00 +36°C° 0.1 mm 5 m/s 750 mm Hg 65%
16:00 +36°C° 0 mm 5 m/s 750 mm Hg 68%
17:00 +35°C° 0 mm 4 m/s 749 mm Hg 72%
18:00 +34°C° 0 mm 4 m/s 749 mm Hg 75%
19:00 +33°C° 0 mm 4 m/s 750 mm Hg 76%
20:00 +32°C° 0 mm 5 m/s 750 mm Hg 77%
21:00 +30°C° 0 mm 5 m/s 750 mm Hg 78%
22:00 +29°C° 0 mm 5 m/s 750 mm Hg 79%
23:00 +28°C° 0 mm 4 m/s 750 mm Hg 80%

16 Luglio, Giovedi

Tempo Temperatura Precipitazioni Vento Pressione Umidità
00:00 +28°C° 0 mm 4 m/s 750 mm Hg 81%
01:00 +27°C° 0 mm 4 m/s 750 mm Hg 82%
02:00 +27°C° 0 mm 4 m/s 751 mm Hg 84%
03:00 +26°C° 0 mm 3 m/s 751 mm Hg 85%
04:00 +26°C° 0 mm 3 m/s 751 mm Hg 87%
05:00 +26°C° 0 mm 3 m/s 751 mm Hg 88%
06:00 +26°C° 0 mm 3 m/s 752 mm Hg 89%
07:00 +28°C° 0 mm 4 m/s 752 mm Hg 83%
08:00 +30°C° 0 mm 4 m/s 752 mm Hg 77%
09:00 +33°C° 0 mm 5 m/s 752 mm Hg 71%
10:00 +34°C° 0 mm 5 m/s 752 mm Hg 68%
11:00 +35°C° 0 mm 5 m/s 752 mm Hg 64%
12:00 +36°C° 0 mm 5 m/s 752 mm Hg 61%
13:00 +36°C° 0 mm 5 m/s 752 mm Hg 60%
14:00 +37°C° 0 mm 5 m/s 751 mm Hg 59%
15:00 +38°C° 0 mm 6 m/s 751 mm Hg 58%
16:00 +36°C° 0 mm 5 m/s 751 mm Hg 63%
17:00 +35°C° 0 mm 5 m/s 751 mm Hg 68%
18:00 +35°C° 0 mm 4 m/s 750 mm Hg 73%
19:00 +34°C° 0 mm 4 m/s 751 mm Hg 74%
20:00 +33°C° 0 mm 4 m/s 751 mm Hg 76%
21:00 +32°C° 0 mm 4 m/s 751 mm Hg 77%
22:00 +30°C° 0 mm 4 m/s 751 mm Hg 78%
23:00 +30°C° 0 mm 4 m/s 751 mm Hg 80%
Mostrare altro